Location: Newark
(45.9608°N, 0.8222°W)
Time: 22:52:06
(UTC+00:00)

X-37B - Visible Passes

Search period start: 25 September 2020 00:00
Search period end: 05 October 2020 00:00
Orbit: 386 x 387 km, 45.0° (Epoch: 18 September)

Date Brightness Start Highest point End Pass type
(mag) Time Alt. Az. Time Alt. Az. Time Alt. Az.
25 Sep 3.0 04:36:49 11° SSW 04:36:49 11° SSW 04:37:20 10° S visible
02 Oct 2.5 19:09:13 10° SSW 19:10:54 18° S 19:10:54 18° S visible
03 Oct 2.9 18:11:52 10° S 18:13:17 12° SE 18:14:42 10° ESE visible
03 Oct 2.8 19:46:19 10° SW 19:47:31 20° SW 19:47:31 20° SW visible
04 Oct 1.6 18:48:04 10° SW 18:50:54 30° SSE 18:51:46 26° SE visible
